Date String (YYYY-MM-DD hh:mm:ss) UTC,Instrument flags,Ambient pressure (hPa),Sample flow (lpm),Bypass flow (lpm),Sample temperature (°C),Ambient temperature (°C),ASC tube jacket temperature (°C),LED temperature (°C),Box temperature (°C),Sample RH (%),Span deviation,Mass concentration (μg/m³),Mass concentration (μg/m³),Mass concentration (μg/m³)
DateTimeUTC,F1_M11,P_M11,Q1_M11,Q2_M11,T1_M11,T2_M11,T3_M11,T4_M11,T5_M11,U1_M11,ZSPAN_M11,X0_M11,X2_M11,X1_M11
2022-12-28 17:00:00,,0809.0,5.00,0.00,24.5,23.5,00.0,33.1,26.3,13.6,0000.0,0001.58,0001.22,0001.12
2022-12-28 17:01:00,,0809.0,4.99,0.00,24.5,23.5,00.0,33.1,26.3,13.4,0000.0,0001.44,0001.11,0001.02
2022-12-28 17:02:00,,0809.1,5.00,0.00,24.5,23.5,00.0,33.2,26.3,13.5,0000.0,0001.40,0001.05,0000.95
2022-12-28 17:03:00,,0809.0,5.01,0.00,24.5,23.5,00.0,33.2,26.3,13.8,0000.0,0001.34,0000.98,0000.88
2022-12-28 17:04:00,,0809.0,4.99,0.00,24.5,23.5,00.0,33.2,26.4,13.7,0000.0,0001.76,0000.89,0000.80
2022-12-28 17:05:00,,0809.1,5.00,0.00,24.5,23.5,00.0,33.2,26.3,13.6,0000.0,0001.80,0000.82,0000.73
2022-12-28 17:06:00,,0809.1,5.00,0.00,24.6,23.5,00.0,33.2,26.4,13.4,0000.0,0003.13,0000.76,0000.67
2022-12-28 17:07:00,,0809.0,5.00,0.00,24.6,23.6,00.0,33.3,26.4,13.5,0000.0,0003.08,0000.71,0000.63
2022-12-28 17:08:00,,0809.1,5.01,0.00,24.6,23.6,00.0,33.3,26.5,13.9,0000.0,0003.70,0000.72,0000.63
2022-12-28 17:09:00,,0809.1,5.00,0.00,24.6,23.6,00.0,33.3,26.5,14.5,0000.0,0004.19,0000.77,0000.67
2022-12-28 17:10:00,,0809.1,5.00,0.00,24.7,23.6,00.0,33.3,26.5,14.3,0000.0,0004.18,0000.82,0000.71
2022-12-28 17:11:00,,0809.1,5.00,0.00,24.7,23.7,00.0,33.3,26.6,14.5,0000.0,0004.21,0000.85,0000.73
2022-12-28 17:12:00,,0809.1,5.00,0.00,24.7,23.7,00.0,33.4,26.6,13.6,0000.0,0004.23,0000.88,0000.77
2022-12-28 17:13:00,,0809.1,4.99,0.00,24.7,23.7,00.0,33.4,26.6,13.4,0000.0,0004.14,0000.84,0000.76
2022-12-28 17:14:00,,0809.1,4.99,0.00,24.7,23.8,00.0,33.4,26.6,13.5,0000.0,0004.17,0000.85,0000.76
2022-12-28 17:15:00,,0809.0,5.01,0.00,24.8,23.8,00.0,33.4,26.6,13.5,0000.0,0003.70,0000.85,0000.75
2022-12-28 17:16:00,,0809.0,4.99,0.00,24.8,23.8,00.0,33.5,26.7,14.7,0000.0,0003.59,0000.91,0000.81
2022-12-28 17:17:00,,0809.0,5.01,0.00,24.8,23.9,00.0,33.5,26.7,14.9,0000.0,0002.29,0001.03,0000.93
2022-12-28 17:18:00,,0809.0,4.99,0.00,24.9,23.9,00.0,33.5,26.7,14.6,0000.0,0002.43,0001.13,0001.01
2022-12-28 17:19:00,,0809.0,5.01,0.00,24.9,23.9,00.0,33.5,26.8,13.7,0000.0,0001.83,0001.13,0001.01
2022-12-28 17:20:00,,0809.0,5.00,0.00,24.9,23.9,00.0,33.5,26.8,13.5,0000.0,0001.54,0001.08,0000.95
2022-12-28 17:21:00,,0809.0,5.01,0.00,24.9,24.0,00.0,33.6,26.8,13.4,0000.0,0001.45,0001.01,0000.89
2022-12-28 17:22:00,,0809.0,4.99,0.00,25.0,24.0,00.0,33.6,26.9,13.5,0000.0,0001.43,0000.99,0000.86
2022-12-28 17:23:00,,0809.0,5.00,0.00,25.0,24.0,00.0,33.6,26.8,13.6,0000.0,0001.41,0000.97,0000.84
2022-12-28 17:24:00,,0809.1,4.99,0.00,25.0,24.0,00.0,33.6,26.9,13.4,0000.0,0001.64,0000.99,0000.84
2022-12-28 17:25:00,,0809.0,5.00,0.00,25.0,24.1,00.0,33.7,26.9,13.6,0000.0,0001.65,0001.00,0000.86
2022-12-28 17:26:00,,0809.0,4.99,0.00,25.1,24.1,00.0,33.7,26.9,13.3,0000.0,0001.67,0001.02,0000.86
2022-12-28 17:27:00,,0809.0,5.00,0.00,25.1,24.1,00.0,33.7,26.9,12.7,0000.0,0001.58,0000.94,0000.78
2022-12-28 17:28:00,,0808.9,5.00,0.00,25.1,24.1,00.0,33.7,26.9,12.7,0000.0,0001.44,0000.80,0000.63
2022-12-28 17:29:00,,0808.9,4.99,0.00,25.1,24.0,00.0,33.7,26.9,12.7,0000.0,0001.27,0000.66,0000.51
2022-12-28 17:30:00,,0808.9,4.99,0.00,25.1,24.0,00.0,33.8,26.9,12.4,0000.0,0001.14,0000.58,0000.44
2022-12-28 17:31:00,,0809.0,4.99,0.00,25.1,23.9,00.0,33.8,26.9,12.6,0000.0,0000.91,0000.52,0000.39
2022-12-28 17:32:00,,0809.0,5.00,0.00,25.1,23.9,00.0,33.8,26.8,12.4,0000.0,0000.90,0000.48,0000.35
2022-12-28 17:33:00,,0809.0,4.99,0.00,25.1,23.9,00.0,33.8,26.8,12.7,0000.0,0000.84,0000.43,0000.31
2022-12-28 17:34:00,,0809.0,5.01,0.00,25.1,23.8,00.0,33.8,26.8,13.3,0000.0,0000.88,0000.46,0000.32
2022-12-28 17:35:00,,0808.9,5.01,0.00,25.1,23.8,00.0,33.8,26.8,12.6,0000.0,0000.69,0000.42,0000.29
2022-12-28 17:36:00,,0808.9,5.00,0.00,25.1,23.8,00.0,33.8,26.7,12.4,0000.0,0000.55,0000.36,0000.24
2022-12-28 17:37:00,,0808.8,5.00,0.00,25.0,23.7,00.0,33.8,26.8,12.3,0000.0,0000.46,0000.28,0000.19
2022-12-28 17:38:00,,0808.7,5.00,0.00,25.0,23.7,00.0,33.8,26.8,12.6,0000.0,0000.39,0000.24,0000.16
2022-12-28 17:39:00,,0808.7,5.00,0.00,25.0,23.7,00.0,33.8,26.7,12.2,0000.0,0000.36,0000.23,0000.16
2022-12-28 17:40:00,,0808.7,5.00,0.00,25.0,23.6,00.0,33.8,26.7,12.4,0000.0,0000.32,0000.22,0000.15
2022-12-28 17:41:00,,0808.6,5.00,0.00,25.0,23.6,00.0,33.8,26.7,12.7,0000.0,0000.36,0000.24,0000.16
2022-12-28 17:42:00,,0808.6,5.00,0.00,25.0,23.5,00.0,33.8,26.6,12.7,0000.0,0000.36,0000.24,0000.16
2022-12-28 17:43:00,,0808.7,5.00,0.00,25.0,23.5,00.0,33.8,26.6,12.9,0000.0,0000.30,0000.22,0000.16
2022-12-28 17:44:00,,0808.6,4.99,0.00,24.9,23.5,00.0,33.8,26.6,13.0,0000.0,0000.32,0000.22,0000.15
2022-12-28 17:45:00,,0808.6,5.00,0.00,24.9,23.5,00.0,33.8,26.6,12.9,0000.0,0000.21,0000.13,0000.08
2022-12-28 17:46:00,,0808.5,4.99,0.00,24.9,23.5,00.0,33.8,26.6,12.6,0000.0,0000.18,0000.12,0000.07
2022-12-28 17:47:00,,0808.6,4.99,0.00,24.9,23.4,00.0,33.8,26.6,12.6,0000.0,0000.25,0000.15,0000.08
2022-12-28 17:48:00,,0808.6,5.00,0.00,24.9,23.4,00.0,33.8,26.6,12.4,0000.0,0000.26,0000.16,0000.08
2022-12-28 17:49:00,,0808.7,5.01,0.00,24.9,23.4,00.0,33.8,26.5,12.8,0000.0,0000.27,0000.16,0000.08
2022-12-28 17:50:00,,0808.6,5.00,0.00,24.8,23.3,00.0,33.8,26.4,12.8,0000.0,0000.27,0000.16,0000.08
2022-12-28 17:51:00,,0808.7,5.01,0.00,24.9,23.3,00.0,33.8,26.5,12.7,0000.0,0000.25,0000.15,0000.08
2022-12-28 17:52:00,,0808.7,5.00,0.00,24.8,23.3,00.0,33.8,26.5,12.7,0000.0,0000.34,0000.14,0000.08
2022-12-28 17:53:00,,0808.8,5.00,0.00,24.8,23.3,00.0,33.8,26.5,12.6,0000.0,0000.36,0000.14,0000.08
2022-12-28 17:54:00,,0808.9,5.00,0.00,24.8,23.3,00.0,33.8,26.4,12.6,0000.0,0000.42,0000.17,0000.08
2022-12-28 17:55:00,,0809.0,5.01,0.00,24.8,23.3,00.0,33.7,26.4,12.5,0000.0,0000.39,0000.16,0000.08
2022-12-28 17:56:00,,0808.9,4.99,0.00,24.8,23.2,00.0,33.7,26.4,12.8,0000.0,0000.41,0000.16,0000.08
2022-12-28 17:57:00,,0808.9,5.00,0.00,24.8,23.2,00.0,33.7,26.4,12.8,0000.0,0000.45,0000.17,0000.08
2022-12-28 17:58:00,,0808.9,5.00,0.00,24.8,23.2,00.0,33.7,26.4,12.6,0000.0,0000.42,0000.15,0000.08
2022-12-28 17:59:00,,0808.9,5.00,0.00,24.8,23.2,00.0,33.7,26.4,12.5,0000.0,0000.42,0000.16,0000.07
